Location: Charleville
(26.4021°S, 146.2454°E)
Time: 03:42:35
(UTC+10:00)

Envisat - Pass Details

Date: 12 November 2025
Orbit: 761 x 762 km, 98.4° (Epoch: 05 December)

Event Time Altitude Azimuth Distance (km) Brightness Sun altitude
Exits shadow 01:29:40 17° 141° (SE) 1,849 5.5 -40.8°
Drops below altitude 10° 01:31:28 10° 159° (SSE) 2,316 6.1 -40.6°
Sets 01:34:14 0° 173° (S) 3,250 7.0 -40.3°
